Weather History for KRAC - December, 2012

Change the Weather History Date:

Tuesday, December 4, 2012

  Actual Average Record
Temperature  
Mean Temperature 44 °F -  
Max Temperature 55 °F 36 °F 61 °F (1961)
Min Temperature 30 °F 20 °F 5 °F (1985)
Degree Days  
Heating Degree Days 22    
Moisture  
Dew Point 31 °F    
Average Humidity 56    
Maximum Humidity 74    
Minimum Humidity 40    
Precipitation  
Precipitation 0.00 in - - ()
Sea Level Pressure  
Sea Level Pressure 30.09 in    
Wind  
Wind Speed 8 mph (WNW)    
Max Wind Speed 16 mph    
Max Gust Speed 25 mph    
Visibility 10 miles    
Events      
Averages and records for this station are not official NWS values.
T = Trace of Precipitation, MM = Missing Value Source: NWS Daily Summary

Daily Weather History Graph

Daily Weather History Graph

Search for Another Location

Airport or City:

Trip Planner

Search our weather history database for the weather conditions in past years. The results will help you decide how hot, cold, wet, or windy it might be!

Date:

Astronomy

Dec. 04, 2012 Rise Set
Actual Time 7:05 AM CST 4:17 PM CST
Civil Twilight 6:33 AM CST 4:49 PM CST
Nautical Twilight 5:58 AM CST 5:24 PM CST
Astronomical Twilight 5:24 AM CST 5:58 PM CST
Moon 10:10 PM CST 10:54 AM CST
Length of Visible Light 10h 15m
Length of Day
9h 11m
Waning Gibbous, 69% of the Moon is Illuminated
Dec 4
Waning Gibbous
Dec 6
Last Quarter
Dec 13
New
Dec 19
First Quarter
Dec 28
Full

Hourly Weather History & Observations

Time (CST) Temp. Windchill Dew Point Humidity Pressure Visibility Wind Dir Wind Speed Gust Speed Precip Events Conditions
12:53 AM 51.1 °F - 43.0 °F 74% 29.94 in 10.0 mi NW 6.9 mph - N/A   Clear
1:53 AM 50.0 °F - 41.0 °F 71% 29.97 in 10.0 mi WNW 8.1 mph - N/A   Mostly Cloudy
2:53 AM 48.0 °F - 39.0 °F 71% 29.98 in 10.0 mi NW 8.1 mph - N/A   Partly Cloudy
3:53 AM 46.9 °F - 37.0 °F 68% 29.99 in 10.0 mi Calm Calm - N/A   Clear
4:53 AM 46.0 °F 44.8 °F 37.0 °F 71% 30.01 in 10.0 mi West 3.5 mph - N/A   Clear
5:53 AM 46.0 °F 41.9 °F 37.0 °F 71% 30.03 in 10.0 mi West 8.1 mph - N/A   Clear
6:53 AM 45.0 °F 41.2 °F 36.0 °F 71% 30.04 in 10.0 mi West 6.9 mph - N/A   Clear
7:53 AM 45.0 °F 40.6 °F 35.1 °F 68% 30.05 in 10.0 mi West 8.1 mph - N/A   Clear
8:53 AM 46.0 °F 41.9 °F 33.1 °F 61% 30.06 in 10.0 mi West 8.1 mph 17.3 mph N/A   Clear
9:53 AM 46.9 °F - 33.1 °F 59% 30.08 in 10.0 mi WNW 11.5 mph 19.6 mph N/A   Clear
10:53 AM 50.0 °F - 32.0 °F 50% 30.07 in 10.0 mi WNW 10.4 mph - N/A   Clear
11:53 AM 52.0 °F - 32.0 °F 47% 30.06 in 10.0 mi West 13.8 mph 24.2 mph N/A   Clear
12:53 PM 54.0 °F - 33.1 °F 45% 30.06 in 10.0 mi West 15.0 mph 20.7 mph N/A   Clear
1:53 PM 55.0 °F - 32.0 °F 42% 30.05 in 10.0 mi West 10.4 mph 25.3 mph N/A   Clear
2:53 PM 55.0 °F - 30.9 °F 40% 30.06 in 10.0 mi West 16.1 mph 23.0 mph N/A   Clear
3:53 PM 53.1 °F - 30.0 °F 41% 30.09 in 10.0 mi West 11.5 mph - N/A   Clear
4:53 PM 51.1 °F - 28.9 °F 43% 30.10 in 10.0 mi West 11.5 mph 19.6 mph N/A   Clear
5:53 PM 48.9 °F - 28.9 °F 46% 30.12 in 10.0 mi West 11.5 mph - N/A   Clear
6:53 PM 46.0 °F 41.0 °F 28.0 °F 50% 30.16 in 10.0 mi NW 10.4 mph 17.3 mph N/A   Clear
7:53 PM 43.0 °F 39.5 °F 24.1 °F 47% 30.20 in 10.0 mi NW 5.8 mph - N/A   Clear
8:53 PM 39.0 °F 31.4 °F 21.9 °F 50% 30.24 in 10.0 mi NW 12.7 mph 19.6 mph N/A   Clear
9:53 PM 35.1 °F 26.4 °F 19.9 °F 54% 30.26 in 10.0 mi NNW 12.7 mph - N/A   Clear
10:53 PM 32.0 °F 23.6 °F 18.0 °F 56% 30.29 in 10.0 mi NNW 10.4 mph - N/A   Clear
11:53 PM 30.0 °F 25.2 °F 16.0 °F 56% 30.33 in 10.0 mi NW 4.6 mph - N/A   Clear